| time (UTC) | temp C | wind direction | speed KPH | gust KPH | rain 1hr cm | rain 24hr cm | rain mn cm | humidity % | barometer mb |
| 20260507211517 | 15 | 0 | 4.8 | 12.9 | 0.00 | 1.65 | 0.84 | 76 | 1004.5 |
| 20260507210517 | 16 | 158 | 4.8 | 14.5 | 0.00 | 1.65 | 0.84 | 75 | 1004.7 |
| 20260507205517 | 16 | 180 | 4.8 | 16.1 | 0.00 | 1.65 | 0.84 | 74 | 1004.6 |
| 20260507204537 | 16 | 0 | 4.8 | 16.1 | 0.00 | 1.65 | 0.84 | 71 | 1004.4 |
| 20260507203537 | 17 | 0 | 8.0 | 17.7 | 0.00 | 1.65 | 0.84 | 69 | 1004.6 |
| 20260507202518 | 17 | 0 | 8.0 | 16.1 | 0.00 | 1.65 | 0.84 | 68 | 1004.5 |
| 20260507201517 | 16 | 203 | 6.4 | 17.7 | 0.00 | 1.65 | 0.84 | 68 | 1004.5 |
| 20260507200517 | 17 | 0 | 1.6 | 4.8 | 0.00 | 1.65 | 0.84 | 61 | 1004.4 |
| 20260507195517 | 17 | 0 | 3.2 | 8.0 | 0.00 | 1.65 | 0.84 | 57 | 1004.5 |
| 20260507194517 | 17 | 0 | 3.2 | 8.0 | 0.00 | 1.65 | 0.84 | 57 | 1004.6 |
| 20260507193517 | 17 | 0 | 3.2 | 8.0 | 0.00 | 1.65 | 0.84 | 59 | 1004.8 |
| 20260507192538 | 17 | 0 | 1.6 | 6.4 | 0.00 | 1.65 | 0.84 | 56 | 1005.0 |
| 20260507191517 | 17 | 0 | 3.2 | 9.7 | 0.00 | 1.65 | 0.84 | 59 | 1005.2 |
| 20260507190537 | 17 | 0 | 1.6 | 6.4 | 0.00 | 1.65 | 0.84 | 58 | 1005.3 |
| 20260507185517 | 17 | 68 | 3.2 | 8.0 | 0.00 | 1.65 | 0.84 | 58 | 1005.4 |
| 20260507184517 | 16 | 45 | 3.2 | 8.0 | 0.00 | 1.65 | 0.84 | 60 | 1005.6 |
| 20260507183517 | 16 | 0 | 3.2 | 6.4 | 0.00 | 1.65 | 0.84 | 63 | 1005.7 |
| 20260507182517 | 16 | 0 | 3.2 | 4.8 | 0.00 | 1.65 | 0.84 | 66 | 1005.9 |
| 20260507181517 | 15 | 0 | 3.2 | 6.4 | 0.00 | 1.65 | 0.84 | 69 | 1005.9 |
| 20260507180517 | 15 | 0 | 3.2 | 6.4 | 0.00 | 1.65 | 0.84 | 72 | 1006.0 |
| 20260507175517 | 14 | 0 | 3.2 | 6.4 | 0.00 | 1.65 | 0.84 | 71 | 1006.3 |
| 20260507174517 | 14 | 0 | 1.6 | 6.4 | 0.00 | 1.65 | 0.84 | 73 | 1006.4 |
| 20260507173518 | 14 | 0 | 4.8 | 8.0 | 0.00 | 1.65 | 0.84 | 73 | 1006.4 |
| 20260507172517 | 14 | 0 | 4.8 | 8.0 | 0.00 | 1.65 | 0.84 | 71 | 1006.4 |
| 20260507171517 | 14 | 0 | 3.2 | 6.4 | 0.00 | 1.65 | 0.84 | 76 | 1006.5 |
| 20260507170518 | 14 | 0 | 4.8 | 12.9 | 0.00 | 1.65 | 0.84 | 71 | 1006.7 |
| 20260507165517 | 15 | 0 | 4.8 | 12.9 | 0.00 | 1.65 | 0.84 | 73 | 1006.8 |
| 20260507164517 | 15 | 0 | 4.8 | 9.7 | 0.00 | 1.65 | 0.84 | 76 | 1006.8 |
| 20260507163518 | 15 | 0 | 3.2 | 14.5 | 0.00 | 1.65 | 0.84 | 77 | 1006.7 |
| 20260507162517 | 15 | 0 | 4.8 | 9.7 | 0.00 | 1.65 | 0.84 | 77 | 1006.9 |
| 20260507161516 | 14 | 0 | 3.2 | 9.7 | 0.00 | 1.65 | 0.84 | 80 | 1006.8 |
| 20260507160516 | 14 | 0 | 4.8 | 12.9 | 0.00 | 1.65 | 0.84 | 82 | 1006.9 |
| 20260507155516 | 13 | 0 | 3.2 | 12.9 | 0.00 | 1.65 | 0.84 | 84 | 1007.1 |
| 20260507154516 | 13 | 0 | 3.2 | 8.0 | 0.00 | 1.65 | 0.84 | 87 | 1007.2 |
| 20260507153517 | 12 | 0 | 3.2 | 9.7 | 0.00 | 1.65 | 0.84 | 90 | 1007.2 |
| 20260507152517 | 12 | 0 | 3.2 | 12.9 | 0.00 | 1.65 | 0.84 | 92 | 1007.2 |
| 20260507151516 | 11 | 0 | 4.8 | 8.0 | 0.00 | 1.65 | 0.84 | 93 | 1007.1 |
| 20260507150516 | 11 | 0 | 3.2 | 9.7 | 0.03 | 1.65 | 0.84 | 94 | 1007.0 |
| 20260507145517 | 11 | 0 | 3.2 | 9.7 | 0.03 | 1.65 | 0.84 | 94 | 1007.3 |
| 20260507144516 | 11 | 0 | 1.6 | 8.0 | 0.03 | 1.65 | 0.84 | 96 | 1007.2 |
| 20260507143516 | 11 | 0 | 3.2 | 6.4 | 0.03 | 1.65 | 0.84 | 96 | 1007.3 |
| 20260507142516 | 11 | 0 | 3.2 | 9.7 | 0.03 | 1.65 | 0.84 | 97 | 1007.4 |
| 20260507141516 | 10 | 0 | 3.2 | 9.7 | 0.03 | 1.65 | 0.84 | 97 | 1007.2 |
| 20260507140516 | 10 | 0 | 4.8 | 9.7 | 0.00 | 1.63 | 0.81 | 97 | 1007.3 |
| 20260507135517 | 10 | 0 | 3.2 | 12.9 | 0.03 | 1.63 | 0.81 | 96 | 1007.1 |
| 20260507134516 | 10 | 0 | 3.2 | 14.5 | 0.03 | 1.63 | 0.81 | 96 | 1007.1 |
| 20260507133536 | 9 | 0 | 4.8 | 9.7 | 0.03 | 1.63 | 0.81 | 96 | 1006.9 |
| 20260507132516 | 9 | 0 | 1.6 | 6.4 | 0.05 | 1.63 | 0.81 | 96 | 1006.9 |
| 20260507131516 | 9 | 0 | 3.2 | 8.0 | 0.05 | 1.63 | 0.81 | 96 | 1007.3 |
| 20260507130538 | 9 | 0 | 4.8 | 12.9 | 0.05 | 1.63 | 0.81 | 96 | 1007.3 |
| 20260507125516 | 9 | 0 | 4.8 | 12.9 | 0.05 | 1.60 | 0.79 | 96 | 1007.3 |
| 20260507124556 | 9 | 0 | 4.8 | 16.1 | 0.05 | 1.60 | 0.79 | 97 | 1007.3 |
| 20260507123516 | 9 | 0 | 4.8 | 14.5 | 0.05 | 1.60 | 0.79 | 96 | 1007.0 |
| 20260507122516 | 9 | 0 | 4.8 | 12.9 | 0.03 | 1.57 | 0.76 | 96 | 1007.3 |
| 20260507121516 | 10 | 0 | 8.0 | 19.3 | 0.05 | 1.57 | 0.76 | 96 | 1007.1 |
| 20260507120516 | 9 | 0 | 8.0 | 22.5 | 0.08 | 1.57 | 0.76 | 96 | 1006.9 |
| 20260507115516 | 9 | 338 | 8.0 | 20.9 | 0.05 | 1.55 | 0.74 | 96 | 1007.4 |
| 20260507114517 | 10 | 338 | 6.4 | 17.7 | 0.05 | 1.55 | 0.74 | 97 | 1007.5 |
| 20260507113516 | 9 | 338 | 8.0 | 19.3 | 0.05 | 1.55 | 0.74 | 97 | 1006.7 |
| 20260507112516 | 10 | 0 | 6.4 | 16.1 | 0.08 | 1.55 | 0.74 | 98 | 1006.6 |
| 20260507111516 | 10 | 315 | 6.4 | 19.3 | 0.05 | 1.52 | 0.71 | 98 | 1006.4 |
| 20260507110537 | 10 | 315 | 8.0 | 20.9 | 0.08 | 1.50 | 0.69 | 98 | 1006.9 |
| 20260507105516 | 10 | 315 | 8.0 | 20.9 | 0.10 | 1.50 | 0.69 | 98 | 1006.6 |
| 20260507104516 | 10 | 338 | 4.8 | 17.7 | 0.36 | 1.50 | 0.69 | 98 | 1006.6 |
| 20260507103517 | 10 | 338 | 6.4 | 17.7 | 0.43 | 1.50 | 0.69 | 98 | 1006.1 |
| 20260507102516 | 10 | 338 | 6.4 | 20.9 | 0.48 | 1.47 | 0.66 | 98 | 1006.3 |
| 20260507101517 | 10 | 338 | 6.4 | 16.1 | 0.48 | 1.47 | 0.66 | 98 | 1006.3 |
| 20260507100516 | 10 | 0 | 6.4 | 19.3 | 0.46 | 1.42 | 0.61 | 98 | 1006.1 |
| 20260507095516 | 11 | 293 | 4.8 | 12.9 | 0.56 | 1.40 | 0.58 | 98 | 1005.6 |
| 20260507094517 | 11 | 68 | 6.4 | 19.3 | 0.33 | 1.14 | 0.33 | 98 | 1006.8 |
| 20260507093516 | 11 | 315 | 6.4 | 17.7 | 0.25 | 1.07 | 0.25 | 98 | 1005.4 |
| 20260507092516 | 12 | 315 | 3.2 | 9.7 | 0.18 | 0.99 | 0.18 | 99 | 1005.7 |
| 20260507091516 | 12 | 315 | 3.2 | 8.0 | 0.18 | 0.99 | 0.18 | 99 | 1005.9 |
| 20260507090516 | 12 | 0 | 1.6 | 8.0 | 0.15 | 0.97 | 0.15 | 99 | 1005.8 |
| 20260507085517 | 12 | 0 | 3.2 | 12.9 | 0.03 | 0.84 | 0.03 | 99 | 1006.1 |
| 20260507084536 | 12 | 0 | 4.8 | 14.5 | 0.00 | 0.81 | 0.00 | 99 | 1006.0 |
| 20260507083515 | 12 | 0 | 3.2 | 8.0 | 0.00 | 0.81 | 0.00 | 98 | 1005.1 |
| 20260507082516 | 13 | 0 | 1.6 | 8.0 | 0.00 | 0.81 | 0.00 | 99 | 1004.8 |
| 20260507081516 | 13 | 0 | 3.2 | 8.0 | 0.00 | 0.81 | 0.00 | 99 | 1004.8 |
| 20260507080516 | 13 | 0 | 1.6 | 8.0 | 0.00 | 0.81 | 0.00 | 99 | 1004.9 |
| 20260507075536 | 13 | 0 | 1.6 | 4.8 | 0.00 | 0.81 | 0.00 | 98 | 1004.9 |
| 20260507074515 | 13 | 0 | 1.6 | 4.8 | 0.00 | 0.81 | 0.00 | 99 | 1005.1 |
| 20260507073516 | 13 | 0 | 1.6 | 6.4 | 0.00 | 0.81 | 0.00 | 99 | 1005.3 |
| 20260507072516 | 13 | 0 | 3.2 | 9.7 | 0.00 | 0.81 | 0.00 | 99 | 1005.2 |
| 20260507071516 | 13 | 0 | 3.2 | 8.0 | 0.00 | 0.81 | 0.00 | 99 | 1005.6 |
| 20260507070535 | 13 | 0 | 3.2 | 6.4 | 0.00 | 0.81 | 0.00 | 99 | 1005.4 |
| 20260507065516 | 13 | 0 | 1.6 | 8.0 | 0.00 | 0.81 | 0.00 | 99 | 1005.3 |
| 20260507064516 | 13 | 0 | 3.2 | 9.7 | 0.00 | 0.81 | 0.00 | 98 | 1005.4 |
| 20260507063516 | 13 | 0 | 3.2 | 9.7 | 0.00 | 0.81 | 0.00 | 98 | 1005.5 |
| 20260507062515 | 13 | 0 | 3.2 | 14.5 | 0.00 | 0.81 | 0.00 | 99 | 1005.7 |
| 20260507061516 | 13 | 0 | 4.8 | 16.1 | 0.00 | 0.81 | 0.00 | 99 | 1005.5 |
| 20260507060515 | 13 | 0 | 4.8 | 14.5 | 0.00 | 0.81 | 0.00 | 99 | 1005.5 |
| 20260507055517 | 13 | 0 | 6.4 | 14.5 | 0.00 | 0.81 | 0.00 | 99 | 1005.7 |
| 20260507054515 | 13 | 0 | 4.8 | 12.9 | 0.00 | 0.81 | 0.00 | 98 | 1005.8 |
| 20260507053535 | 13 | 0 | 4.8 | 17.7 | 0.00 | 0.81 | 0.00 | 98 | 1006.1 |
| 20260507052517 | 13 | 0 | 9.7 | 29.0 | 0.00 | 0.81 | 0.00 | 99 | 1006.4 |
| 20260507051517 | 14 | 0 | 6.4 | 17.7 | 0.00 | 0.81 | 0.00 | 99 | 1006.4 |
| 20260507050517 | 14 | 0 | 8.0 | 19.3 | 0.00 | 0.81 | 0.00 | 99 | 1006.2 |
| 20260507045517 | 13 | 0 | 8.0 | 16.1 | 0.00 | 0.81 | 0.00 | 99 | 1006.3 |
| 20260507044538 | 14 | 0 | 6.4 | 19.3 | 0.00 | 0.81 | 0.00 | 98 | 1006.4 |
| 20260507043517 | 14 | 0 | 6.4 | 17.7 | 0.00 | 0.81 | 0.00 | 98 | 1006.5 |
| 20260507042517 | 14 | 0 | 8.0 | 20.9 | 0.00 | 0.81 | 0.00 | 98 | 1006.6 |
| 20260507041517 | 14 | 0 | 6.4 | 29.0 | 0.00 | 0.81 | 0.00 | 98 | 1006.7 |
| 20260507040539 | 14 | 0 | 4.8 | 17.7 | 0.00 | 0.81 | 0.00 | 98 | 1006.6 |
| 20260507035517 | 14 | 0 | 8.0 | 22.5 | 0.00 | 0.81 | 0.81 | 98 | 1006.6 |
| 20260507034516 | 14 | 0 | 9.7 | 24.1 | 0.00 | 0.81 | 0.81 | 98 | 1006.7 |
| 20260507033516 | 14 | 0 | 12.9 | 27.4 | 0.00 | 0.81 | 0.81 | 98 | 1006.6 |
| 20260507032516 | 14 | 0 | 11.3 | 22.5 | 0.00 | 0.81 | 0.81 | 98 | 1006.4 |
| 20260507031516 | 14 | 0 | 8.0 | 27.4 | 0.00 | 0.81 | 0.81 | 98 | 1006.2 |
| 20260507030516 | 14 | 0 | 9.7 | 30.6 | 0.00 | 0.81 | 0.81 | 98 | 1006.3 |
| 20260507025516 | 14 | 0 | 9.7 | 22.5 | 0.00 | 0.81 | 0.81 | 98 | 1006.6 |
| 20260507024537 | 14 | 0 | 8.0 | 20.9 | 0.00 | 0.81 | 0.81 | 98 | 1006.9 |
| 20260507023517 | 14 | 0 | 9.7 | 25.7 | 0.03 | 0.81 | 0.81 | 98 | 1007.0 |
| 20260507022516 | 14 | 0 | 8.0 | 24.1 | 0.03 | 0.81 | 0.81 | 98 | 1007.1 |
| 20260507021516 | 14 | 0 | 8.0 | 29.0 | 0.03 | 0.81 | 0.81 | 98 | 1007.3 |
| 20260507020516 | 14 | 0 | 8.0 | 20.9 | 0.03 | 0.81 | 0.81 | 98 | 1007.2 |
| 20260507015516 | 14 | 0 | 9.7 | 17.7 | 0.05 | 0.81 | 0.81 | 98 | 1007.4 |
| 20260507014517 | 14 | 0 | 12.9 | 25.7 | 0.08 | 0.81 | 0.81 | 98 | 1007.7 |
| 20260507013516 | 14 | 0 | 12.9 | 29.0 | 0.15 | 0.79 | 0.79 | 98 | 1007.6 |
| 20260507012516 | 14 | 0 | 11.3 | 37.0 | 0.28 | 0.79 | 0.79 | 98 | 1007.6 |
| 20260507011516 | 14 | 0 | 9.7 | 24.1 | 0.38 | 0.79 | 0.79 | 98 | 1007.7 |
| 20260507010516 | 14 | 0 | 11.3 | 27.4 | 0.41 | 0.79 | 0.79 | 98 | 1007.9 |
| 20260507005516 | 13 | 0 | 11.3 | 29.0 | 0.43 | 0.76 | 0.76 | 98 | 1007.8 |
| 20260507004516 | 13 | 0 | 12.9 | 37.0 | 0.43 | 0.74 | 0.74 | 98 | 1007.8 |
| 20260507003516 | 13 | 0 | 11.3 | 25.7 | 0.36 | 0.64 | 0.64 | 97 | 1007.7 |
| 20260507002516 | 13 | 0 | 9.7 | 24.1 | 0.28 | 0.51 | 0.51 | 97 | 1007.6 |
| 20260507001536 | 13 | 0 | 9.7 | 25.7 | 0.28 | 0.41 | 0.41 | 97 | 1007.6 |
| 20260507000516 | 13 | 0 | 9.7 | 20.9 | 0.28 | 0.38 | 0.38 | 97 | 1007.6 |
| 20260506235516 | 14 | 0 | 11.3 | 25.7 | 0.33 | 0.33 | 0.33 | 97 | 1007.8 |
| 20260506234536 | 14 | 0 | 11.3 | 24.1 | 0.30 | 0.30 | 0.30 | 96 | 1007.9 |
| 20260506233516 | 14 | 0 | 14.5 | 41.8 | 0.28 | 0.28 | 0.28 | 96 | 1008.0 |
| 20260506232536 | 14 | 0 | 11.3 | 29.0 | 0.23 | 0.23 | 0.23 | 95 | 1008.1 |
| 20260506231516 | 14 | 0 | 12.9 | 29.0 | 0.13 | 0.13 | 0.13 | 94 | 1008.3 |
| 20260506230516 | 15 | 0 | 11.3 | 29.0 | 0.10 | 0.10 | 0.10 | 93 | 1008.4 |
| 20260506225536 | 15 | 0 | 9.7 | 30.6 | 0.00 | 0.00 | 0.00 | 90 | 1008.3 |
| 20260506224516 | 15 | 0 | 12.9 | 29.0 | 0.00 | 0.00 | 0.00 | 89 | 1008.3 |
| 20260506223516 | 16 | 0 | 11.3 | 32.2 | 0.00 | 0.00 | 0.00 | 88 | 1008.1 |
| 20260506222515 | 16 | 0 | 11.3 | 29.0 | 0.00 | 0.00 | 0.00 | 87 | 1008.2 |
| 20260506221516 | 15 | 0 | 9.7 | 24.1 | 0.00 | 0.00 | 0.00 | 87 | 1008.4 |
| 20260506220515 | 16 | 0 | 9.7 | 19.3 | 0.00 | 0.00 | 0.00 | 87 | 1008.6 |
| 20260506215536 | 16 | 0 | 11.3 | 27.4 | 0.00 | 0.00 | 0.00 | 87 | 1008.4 |
| 20260506214516 | 16 | 0 | 11.3 | 24.1 | 0.00 | 0.00 | 0.00 | 86 | 1008.7 |
| 20260506213515 | 16 | 0 | 11.3 | 35.4 | 0.00 | 0.00 | 0.00 | 86 | 1008.8 |
| 20260506212535 | 16 | 0 | 11.3 | 27.4 | 0.00 | 0.00 | 0.00 | 85 | 1008.8 |